TimeCST,TemperatureF,Dew PointF,Humidity,Sea Level PressureIn,VisibilityMPH,Wind Direction,Wind SpeedMPH,Gust SpeedMPH,PrecipitationIn,Events,Conditions,WindDirDegrees,DateUTC
12:12 AM,8.6,1.4,73,30.12,10.0,Calm,Calm,-,N/A,,Scattered Clouds,0,2013-01-27 06:12:00
12:51 AM,8.6,3.2,79,30.11,10.0,Calm,Calm,-,N/A,,Mostly Cloudy,0,2013-01-27 06:51:00
1:12 AM,10.4,3.2,73,30.11,10.0,Calm,Calm,-,N/A,,Scattered Clouds,0,2013-01-27 07:12:00
1:31 AM,10.4,3.2,73,30.10,10.0,SW,3.5,-,N/A,,Mostly Cloudy,220,2013-01-27 07:31:00
1:51 AM,6.8,1.4,79,30.10,10.0,Calm,Calm,-,N/A,,Mostly Cloudy,0,2013-01-27 07:51:00
2:12 AM,8.6,3.2,79,30.10,10.0,Calm,Calm,-,N/A,,Clear,0,2013-01-27 08:12:00
2:31 AM,6.8,1.4,79,30.10,10.0,Calm,Calm,-,N/A,,Clear,0,2013-01-27 08:31:00
2:51 AM,3.2,-2.2,78,30.09,10.0,Calm,Calm,-,N/A,,Clear,0,2013-01-27 08:51:00
3:12 AM,1.4,-4.0,78,30.08,10.0,Calm,Calm,-,N/A,,Clear,0,2013-01-27 09:12:00
3:31 AM,5.0,-0.4,78,30.07,10.0,Calm,Calm,-,N/A,,Clear,0,2013-01-27 09:31:00
3:51 AM,1.4,-4.0,78,30.06,10.0,Calm,Calm,-,N/A,,Clear,0,2013-01-27 09:51:00
4:12 AM,3.2,-2.2,78,30.05,10.0,Calm,Calm,-,N/A,,Clear,0,2013-01-27 10:12:00
4:31 AM,6.8,1.4,79,30.05,10.0,Calm,Calm,-,N/A,,Clear,0,2013-01-27 10:31:00
4:51 AM,8.6,3.2,79,30.05,10.0,Calm,Calm,-,N/A,,Clear,0,2013-01-27 10:51:00
5:12 AM,6.8,1.4,79,30.04,10.0,Calm,Calm,-,N/A,,Clear,0,2013-01-27 11:12:00
5:51 AM,6.8,1.4,79,30.04,10.0,Calm,Calm,-,N/A,,Clear,0,2013-01-27 11:51:00
6:12 AM,1.4,-4.0,78,30.04,10.0,Calm,Calm,-,N/A,,Clear,0,2013-01-27 12:12:00
6:31 AM,3.2,-2.2,78,30.04,10.0,Calm,Calm,-,N/A,,Clear,0,2013-01-27 12:31:00
6:51 AM,-0.4,-5.8,78,30.04,10.0,North,3.5,-,N/A,,Clear,10,2013-01-27 12:51:00
7:11 AM,-0.4,-5.8,78,30.04,10.0,Calm,Calm,-,N/A,,Clear,0,2013-01-27 13:11:00
7:31 AM,6.8,1.4,79,30.04,10.0,NNE,3.5,-,N/A,,Clear,30,2013-01-27 13:31:00
7:51 AM,5.0,-0.4,78,30.04,10.0,NNE,3.5,-,N/A,,Clear,20,2013-01-27 13:51:00
8:11 AM,10.4,6.8,85,30.04,10.0,NNE,5.8,-,N/A,,Clear,20,2013-01-27 14:11:00
8:31 AM,12.2,6.8,79,30.04,10.0,NNE,5.8,-,N/A,,Clear,20,2013-01-27 14:31:00
8:51 AM,14.0,8.6,79,30.03,10.0,NNE,4.6,-,N/A,,Clear,30,2013-01-27 14:51:00
9:11 AM,15.8,10.4,79,30.03,10.0,NNE,5.8,-,N/A,,Clear,30,2013-01-27 15:11:00
9:31 AM,17.6,10.4,73,30.03,10.0,NNE,4.6,-,N/A,,Clear,30,2013-01-27 15:31:00
9:51 AM,19.4,12.2,74,30.03,10.0,NE,4.6,-,N/A,,Clear,40,2013-01-27 15:51:00
10:11 AM,21.2,12.2,68,30.03,10.0,NE,3.5,-,N/A,,Clear,50,2013-01-27 16:11:00
10:31 AM,23.0,14.0,68,30.02,10.0,East,4.6,-,N/A,,Clear,80,2013-01-27 16:31:00
10:51 AM,24.8,15.8,69,30.02,10.0,ENE,6.9,-,N/A,,Scattered Clouds,70,2013-01-27 16:51:00
11:11 AM,24.8,15.8,69,30.01,10.0,ENE,6.9,-,N/A,,Scattered Clouds,70,2013-01-27 17:11:00
11:31 AM,26.6,15.8,64,30.00,10.0,ENE,6.9,-,N/A,,Scattered Clouds,70,2013-01-27 17:31:00
11:51 AM,26.6,15.8,64,29.99,10.0,East,5.8,-,N/A,,Clear,90,2013-01-27 17:51:00
12:11 PM,26.6,15.8,64,29.99,10.0,East,4.6,-,N/A,,Clear,90,2013-01-27 18:11:00
12:31 PM,26.6,15.8,64,29.98,10.0,East,6.9,-,N/A,,Clear,80,2013-01-27 18:31:00
12:51 PM,26.6,15.8,64,29.97,10.0,East,5.8,-,N/A,,Clear,80,2013-01-27 18:51:00
1:12 PM,26.6,15.8,64,29.96,10.0,East,8.1,-,N/A,,Scattered Clouds,80,2013-01-27 19:12:00
1:31 PM,26.6,15.8,64,29.96,10.0,ENE,9.2,-,N/A,,Overcast,70,2013-01-27 19:31:00
1:51 PM,26.6,15.8,64,29.96,10.0,East,5.8,-,N/A,,Overcast,100,2013-01-27 19:51:00
2:12 PM,26.6,15.8,64,29.95,10.0,East,8.1,-,N/A,,Overcast,80,2013-01-27 20:12:00
2:51 PM,26.6,17.6,69,29.94,10.0,ENE,6.9,-,N/A,,Overcast,60,2013-01-27 20:51:00
3:12 PM,26.6,17.6,69,29.93,10.0,ENE,8.1,-,N/A,,Overcast,70,2013-01-27 21:12:00
3:31 PM,26.6,17.6,69,29.93,10.0,NE,6.9,-,N/A,,Overcast,50,2013-01-27 21:31:00
3:51 PM,26.6,17.6,69,29.93,10.0,NE,6.9,-,N/A,,Overcast,50,2013-01-27 21:51:00
4:11 PM,26.6,17.6,69,29.92,10.0,ENE,8.1,-,N/A,,Overcast,60,2013-01-27 22:11:00
4:31 PM,26.6,17.6,69,29.91,10.0,ENE,6.9,-,N/A,,Overcast,60,2013-01-27 22:31:00
4:51 PM,26.6,17.6,69,29.90,10.0,ENE,8.1,-,N/A,,Overcast,60,2013-01-27 22:51:00
5:11 PM,26.6,17.6,69,29.90,10.0,ENE,8.1,-,N/A,,Overcast,60,2013-01-27 23:11:00
5:51 PM,26.6,19.4,74,29.89,10.0,ENE,9.2,-,N/A,,Overcast,60,2013-01-27 23:51:00
6:11 PM,28.4,19.4,69,29.89,10.0,ENE,9.2,-,N/A,,Overcast,60,2013-01-28 00:11:00
6:31 PM,28.4,19.4,69,29.89,10.0,NE,8.1,-,N/A,,Overcast,50,2013-01-28 00:31:00
6:51 PM,28.4,19.4,69,29.89,10.0,ENE,9.2,-,N/A,,Overcast,70,2013-01-28 00:51:00
7:11 PM,28.4,21.2,74,29.88,10.0,ENE,11.5,-,N/A,,Overcast,70,2013-01-28 01:11:00
7:31 PM,28.4,21.2,74,29.87,10.0,ENE,8.1,-,N/A,,Overcast,70,2013-01-28 01:31:00
7:51 PM,28.4,21.2,74,29.86,10.0,ENE,8.1,-,N/A,,Overcast,70,2013-01-28 01:51:00
8:12 PM,28.4,21.2,74,29.86,10.0,ENE,8.1,-,N/A,,Overcast,70,2013-01-28 02:12:00
8:31 PM,28.4,23.0,80,29.85,7.0,ENE,6.9,-,N/A,Snow,Light Snow,70,2013-01-28 02:31:00
8:51 PM,28.4,24.8,86,29.85,2.5,ENE,8.1,-,N/A,Snow,Light Snow,70,2013-01-28 02:51:00
9:12 PM,28.4,24.8,86,29.84,3.0,ENE,5.8,-,N/A,Snow,Light Snow,70,2013-01-28 03:12:00
9:31 PM,28.4,24.8,86,29.83,2.0,East,8.1,-,N/A,Snow,Light Snow,90,2013-01-28 03:31:00
10:11 PM,28.4,24.8,86,29.83,3.0,East,6.9,-,N/A,,Overcast,100,2013-01-28 04:11:00
10:31 PM,28.4,24.8,86,29.82,5.0,East,6.9,-,N/A,Snow,Light Snow,100,2013-01-28 04:31:00
10:51 PM,28.4,24.8,86,29.82,5.0,East,3.5,-,N/A,Snow,Light Snow,90,2013-01-28 04:51:00
11:11 PM,28.4,24.8,86,29.82,5.0,East,5.8,-,N/A,,Haze,100,2013-01-28 05:11:00
11:31 PM,28.4,24.8,86,29.82,4.0,East,5.8,-,N/A,Snow,Light Snow,100,2013-01-28 05:31:00
11:51 PM,28.4,24.8,86,29.82,3.0,East,3.5,-,N/A,Snow,Light Snow,100,2013-01-28 05:51:00